DateTimeUTC,F1_A11,F1_S11,BsB_S11,BsG_S11,BsR_S11,BbsB_S11,BbsG_S11,BbsR_S11,BaB_A11,BaG_A11,BaR_A11,Tu_S11,T_S11,Uu_S11,U_S11,P_S11,T1_A11
2021-07-03T23:00:00Z,00000200,20000000,,,,,,,0000.07,0000.29,-000.36,18.9,25.6,08.3,05.5,0672.4,31.1
2021-07-03T23:01:00Z,00000200,20000000,,,,,,,0000.25,-000.11,0000.20,18.9,25.6,08.3,05.5,0672.4,31.1
2021-07-03T23:02:00Z,00000200,20000000,,,,,,,-000.28,0000.05,-000.14,18.8,25.6,08.3,05.5,0672.4,31.1
2021-07-03T23:03:00Z,00000200,60000000,,,,,,,0000.21,0000.09,0000.10,18.8,25.6,08.3,05.5,0672.4,31.1
2021-07-03T23:04:00Z,00000200,40000000,0000.68,0000.32,0000.28,0000.95,-000.14,-000.21,-000.17,-000.10,-000.20,18.8,25.3,08.2,05.5,0673.3,31.1
2021-07-03T23:05:00Z,00000200,00000000,0000.22,0000.51,0000.64,0000.32,-000.06,0000.13,0000.28,0000.26,0000.30,18.9,25.3,08.1,05.5,0673.4,31.1
2021-07-03T23:06:00Z,00000200,00000000,0000.78,0000.71,0000.18,0000.35,0000.23,-000.27,0000.14,-000.09,-000.15,18.8,25.2,08.2,05.6,0673.4,31.1
2021-07-03T23:07:00Z,00000200,00000000,0001.05,0000.38,0000.15,0000.13,-000.14,-000.24,-000.05,0000.12,0000.59,18.8,25.2,08.3,05.7,0673.4,31.1
2021-07-03T23:08:00Z,00000200,00000000,0001.20,0000.76,0000.59,0000.15,0000.29,0000.06,0000.77,0000.35,0000.15,18.9,25.2,08.2,05.6,0673.4,31.1
2021-07-03T23:09:00Z,00000200,00000000,0000.36,0000.52,0000.18,0000.15,-000.01,0000.21,-000.37,0000.01,-000.27,19.0,25.3,08.2,05.6,0673.4,31.1
2021-07-03T23:10:00Z,00000200,00000000,0000.50,0000.49,0000.19,0001.03,-000.51,-000.07,0000.31,0000.17,0000.09,19.1,25.3,08.2,05.6,0673.4,31.2
2021-07-03T23:11:00Z,00000200,00000000,0001.30,0000.46,0000.53,0000.55,0000.18,0000.38,0000.06,0000.24,0000.06,19.2,25.4,08.1,05.6,0673.4,31.2
2021-07-03T23:12:00Z,00000200,00000000,0000.00,0000.44,0000.68,-000.46,0000.01,-000.06,0000.20,-000.19,0000.37,19.3,25.4,08.1,05.6,0673.4,31.2
2021-07-03T23:13:00Z,00000200,00000000,0000.28,0000.49,0000.27,0000.35,0000.22,0000.06,-000.17,0000.30,0000.11,19.3,25.5,08.0,05.5,0673.4,31.2
2021-07-03T23:14:00Z,00000200,00000000,0000.72,0000.56,0000.14,0000.26,-000.06,-000.20,-000.23,-000.19,0000.04,19.3,25.5,08.0,05.5,0673.4,31.2
2021-07-03T23:15:00Z,00000200,00000000,0000.29,0000.56,0000.18,0000.40,-000.00,-000.12,0000.38,0000.35,-000.40,19.3,25.4,08.0,05.5,0673.4,31.2
2021-07-03T23:16:00Z,00000200,00000000,0000.44,0000.61,0000.07,0000.10,-000.01,-000.21,0000.10,0000.06,0000.41,19.3,25.4,07.9,05.4,0673.4,31.2
2021-07-03T23:17:00Z,00000200,00000000,0000.12,0000.73,0000.33,0000.48,0000.17,-000.11,-000.09,0000.09,-000.04,19.2,25.4,07.8,05.4,0673.4,31.2
2021-07-03T23:18:00Z,00000200,00000000,0001.00,0000.41,0000.30,0000.74,-000.07,0000.08,0000.24,-000.13,0000.05,19.2,25.4,07.8,05.4,0673.4,31.2
2021-07-03T23:19:00Z,00000200,00000000,0001.45,0000.23,0000.45,0000.82,0000.01,0000.06,0000.18,0000.16,-000.20,19.2,25.4,07.9,05.4,0673.4,31.1
2021-07-03T23:20:00Z,00000200,00000000,0000.28,0000.51,0000.25,0000.48,0000.07,-000.23,-000.27,0000.19,0000.14,19.2,25.3,07.8,05.4,0673.4,31.1
2021-07-03T23:21:00Z,00000200,00000000,0001.08,0000.58,0000.15,0000.13,0000.16,-000.28,0000.35,0000.09,0000.20,19.1,25.3,07.9,05.4,0673.4,31.1
2021-07-03T23:22:00Z,00000200,00000000,0000.59,0000.54,0000.18,0000.17,0000.19,-000.14,0000.32,-000.18,0000.21,19.1,25.3,07.8,05.3,0673.4,31.1
2021-07-03T23:23:00Z,00000200,00000000,0000.97,0000.25,0000.20,0000.42,0000.22,-000.02,-000.27,0000.17,-000.40,19.1,25.3,07.9,05.4,0673.4,31.1
2021-07-03T23:24:00Z,00000200,00000000,0000.47,0000.57,0000.43,0000.39,-000.02,-000.08,0000.10,-000.17,0000.29,19.1,25.3,07.9,05.4,0673.4,31.1
2021-07-03T23:25:00Z,00000200,00000000,0000.57,0000.51,0000.30,0000.83,-000.40,0000.14,0000.33,0000.43,0000.33,19.0,25.3,07.9,05.4,0673.4,31.1
2021-07-03T23:26:00Z,00000200,00000000,0000.51,0000.24,0000.42,0000.31,-000.07,-000.26,-000.10,0000.16,-000.04,19.0,25.2,07.9,05.4,0673.3,31.1
2021-07-03T23:27:00Z,00000200,00000000,0000.02,0000.44,0000.38,-000.35,0000.24,0000.11,0000.25,0000.06,0000.12,19.0,25.2,07.9,05.4,0673.3,31.1
2021-07-03T23:28:00Z,00000200,00000000,0000.38,0000.52,0000.21,0000.12,0000.21,0000.15,0000.18,0000.08,-000.15,18.9,25.2,07.9,05.4,0673.4,31.1
2021-07-03T23:29:00Z,00000200,00000000,0000.61,0000.42,0000.26,0000.51,0000.23,-000.01,-000.17,0000.09,0000.14,18.9,25.2,07.8,05.3,0673.4,31.1
2021-07-03T23:30:00Z,00000200,00000000,0000.45,0000.36,0000.03,0000.28,0000.11,-000.03,-000.14,-000.40,-000.29,18.9,25.1,07.9,05.4,0673.4,31.1
2021-07-03T23:31:00Z,00000200,00000000,0000.83,0000.36,0000.36,0000.47,-000.13,0000.24,0000.47,0000.08,0000.44,18.8,25.1,07.8,05.3,0673.4,31.1
2021-07-03T23:32:00Z,00000200,00000000,0000.58,0000.48,0000.09,0000.22,-000.05,0000.16,0000.17,0000.43,-000.01,18.8,25.1,07.8,05.3,0673.4,31.1
2021-07-03T23:33:00Z,00000200,00000000,0001.02,0000.52,0000.48,0000.27,0000.26,-000.17,-000.30,-000.14,0000.07,18.8,25.1,07.8,05.3,0673.4,31.1
2021-07-03T23:34:00Z,00000200,00000000,0000.24,0000.12,0000.41,0000.51,0000.11,-000.14,0000.30,0000.20,0000.08,18.8,25.1,07.9,05.3,0673.4,31.1
2021-07-03T23:35:00Z,00000200,00000000,0000.02,0000.12,0000.46,0000.89,-000.15,-000.14,0000.09,0000.09,0000.19,18.8,25.1,07.8,05.3,0673.4,31.1
2021-07-03T23:36:00Z,00000200,00000000,0001.12,0000.43,0000.46,0000.52,0000.32,-000.14,0000.12,-000.13,-000.25,18.8,25.0,07.8,05.3,0673.4,31.1
2021-07-03T23:37:00Z,00000200,00000000,0000.44,0000.47,0000.15,0000.69,0000.41,0000.16,-000.16,0000.23,0000.24,18.8,25.0,07.8,05.3,0673.4,31.1
2021-07-03T23:38:00Z,00000200,00000000,0000.16,0000.43,0000.33,0000.46,-000.05,0000.08,0000.33,0000.21,-000.16,18.8,25.0,07.7,05.2,0673.4,31.1
2021-07-03T23:39:00Z,00000200,00000000,0000.92,0000.49,0000.53,0000.15,0000.14,0000.09,0000.20,0000.00,0000.31,18.9,25.1,07.7,05.3,0673.4,31.1
2021-07-03T23:40:00Z,00000200,00000000,0000.13,0000.07,0000.47,-000.08,-000.01,0000.06,-000.11,0000.43,0000.20,19.0,25.1,07.6,05.2,0673.4,31.2
2021-07-03T23:41:00Z,00000200,00000000,0000.39,0000.54,0000.30,0000.44,-000.17,0000.20,0000.19,-000.41,-000.15,19.1,25.2,07.6,05.2,0673.4,31.2
2021-07-03T23:42:00Z,00000200,00000000,0000.61,0000.51,0000.20,0000.70,0000.06,-000.14,0000.11,0000.41,0000.55,19.1,25.3,07.4,05.1,0673.4,31.2
2021-07-03T23:43:00Z,00000200,00000000,0000.42,0000.46,0000.40,0000.47,0000.02,-000.30,-000.19,-000.09,-000.37,19.2,25.3,07.4,05.1,0673.5,31.2
2021-07-03T23:44:00Z,00000200,00000000,0000.15,0000.67,0000.26,0000.32,-000.09,0000.02,-000.01,-000.09,0000.11,19.2,25.3,07.2,05.0,0673.5,31.2
2021-07-03T23:45:00Z,00000200,00000000,0000.35,0000.52,0000.09,0000.77,0000.03,0000.07,-000.02,0000.13,-000.23,19.2,25.3,07.2,05.0,0673.5,31.2
2021-07-03T23:46:00Z,00000200,00000000,0000.87,0000.32,0000.47,0000.53,0000.20,-000.10,0000.13,0000.27,0000.24,19.2,25.3,07.1,04.9,0673.4,31.2
2021-07-03T23:47:00Z,00000200,00000000,0000.18,0000.10,0000.23,0000.51,-000.20,-000.15,0000.09,-000.08,0000.16,19.2,25.3,07.2,05.0,0673.4,31.2
2021-07-03T23:48:00Z,00000200,00000000,-000.02,0000.71,0000.16,-000.08,-000.12,-000.06,0000.16,-000.01,-000.05,19.1,25.3,07.2,04.9,0673.4,31.1
2021-07-03T23:49:00Z,00000200,00000000,0000.33,0000.44,0000.25,0000.31,0000.10,-000.13,-000.07,0000.11,-000.22,19.1,25.3,07.3,05.0,0673.4,31.1
2021-07-03T23:50:00Z,00000200,00000000,0000.41,0000.45,0000.38,0000.77,0000.15,0000.22,-000.09,0000.20,0000.43,19.1,25.2,07.2,04.9,0673.4,31.1
2021-07-03T23:51:00Z,00000200,00000000,0000.70,0000.50,0000.03,0000.16,-000.21,-000.08,0000.55,-000.04,0000.32,19.0,25.2,07.2,05.0,0673.4,31.1
2021-07-03T23:52:00Z,00000200,00000000,0000.54,-000.00,0000.19,0000.29,-000.06,-000.05,-000.06,0000.27,-000.47,19.0,25.2,07.2,05.0,0673.4,31.1
2021-07-03T23:53:00Z,00000200,00000000,0000.55,0000.19,0000.28,0000.38,0000.06,0000.24,0000.72,0000.14,0000.33,19.1,25.2,07.3,05.0,0673.4,31.1
2021-07-03T23:54:00Z,00000200,00000000,-000.03,0000.53,0000.27,-000.03,-000.04,-000.13,-000.41,-000.07,0000.03,19.1,25.3,07.2,04.9,0673.4,31.2
2021-07-03T23:55:00Z,00000200,00000000,0000.32,0000.31,0000.07,0000.56,0000.04,0000.07,0000.19,0000.16,0000.21,19.2,25.3,07.2,05.0,0673.4,31.2
2021-07-03T23:56:00Z,00000200,00000000,0000.66,0000.33,0000.39,-000.01,0000.09,-000.04,-000.11,0000.17,0000.12,19.3,25.4,07.1,04.9,0673.4,31.2
2021-07-03T23:57:00Z,00000200,40000000,,,,,,,0000.23,0000.23,0000.05,19.4,25.4,06.6,04.6,0673.4,31.2
2021-07-03T23:58:00Z,00000200,60000000,,,,,,,-000.19,-000.17,-000.38,19.2,25.6,07.3,04.9,0672.4,31.2
2021-07-03T23:59:00Z,00000200,20000000,,,,,,,0000.15,-000.09,0000.02,19.1,25.7,07.1,04.8,0672.4,31.2
